This is the latest recevied weather packets stored in our database for station/object WX4SGA. If no packets are shown the sender has not sent any weather packets the latest 10 day(s).
| Time | Temp. | Humidity | Pressure | Rain* | Wind** | Luminosity | Snow |
|---|---|---|---|---|---|---|---|
| 1778291297 | 17.78° C | 99% | 1016.3 hPa | 0 mm | - | 0 W/m² | - |
| 1778290994 | 17.78° C | 99% | 1016.6 hPa | 0 mm | - | 0 W/m² | - |
| 1778290691 | 17.78° C | 99% | 1016.6 hPa | 0 mm | - | 0 W/m² | - |
| 1778290387 | 17.78° C | 99% | 1016.9 hPa | 0 mm | - | 0 W/m² | - |
| 1778290083 | 17.78° C | 99% | 1016.9 hPa | 0 mm | - | 0 W/m² | - |
| 1778289779 | 17.78° C | 99% | 1016.6 hPa | 0 mm | - | 0 W/m² | - |
| 1778289477 | 17.78° C | 99% | 1016.9 hPa | 0 mm | - | 0 W/m² | - |
| 1778289174 | 17.78° C | 99% | 1016.6 hPa | 0 mm | - | 0 W/m² | - |
| 1778288872 | 17.78° C | 99% | 1016.6 hPa | 0 mm | - | 0 W/m² | - |
| 1778288568 | 17.78° C | 99% | 1016.3 hPa | 0 mm | - | 0 W/m² | - |
| 1778288266 | 17.78° C | 99% | 1016.9 hPa | 1.27 mm | - | 0 W/m² | - |
| 1778287963 | 17.78° C | 99% | 1016.9 hPa | 1.27 mm | - | 0 W/m² | - |
| 1778287657 | 17.78° C | 99% | 1016.9 hPa | 1.78 mm | - | 0 W/m² | - |
| 1778287355 | 17.78° C | 99% | 1016.9 hPa | 4.83 mm | - | 0 W/m² | - |
| 1778287053 | 18.33° C | 99% | 1016.9 hPa | 6.6 mm | - | 0 W/m² | - |
| 1778286750 | 18.33° C | 99% | 1016.9 hPa | 4.83 mm | - | 0 W/m² | - |
| 1778286447 | 18.33° C | 99% | 1017.3 hPa | 3.05 mm | - | 0 W/m² | - |
| 1778286145 | 18.33° C | 99% | 1017.3 hPa | 1.78 mm | - | 0 W/m² | - |
| 1778285842 | 18.89° C | 99% | 1016.9 hPa | 1.78 mm | - | 0 W/m² | - |
| 1778285538 | 18.33° C | 99% | 1016.6 hPa | 3.05 mm | - | 0 W/m² | - |
| 1778285236 | 18.33° C | 99% | 1016.6 hPa | 3.05 mm | - | 1 W/m² | - |
| 1778284934 | 18.33° C | 99% | 1016.9 hPa | 1.78 mm | - | 1 W/m² | - |
| 1778284630 | 18.33° C | 99% | 1016.6 hPa | 1.78 mm | - | 1 W/m² | - |
| 1778284326 | 18.33° C | 99% | 1016.9 hPa | 3.05 mm | - | 1 W/m² | - |
| 1778284024 | 18.33° C | 99% | 1016.9 hPa | 1.27 mm | - | 1 W/m² | - |
* Rain latest hour (hover to see other rain measurements)
** Current wind speed in m/s (hover to see current wind gust speed)